Waarnemingen

Advertentie
Mijn weer
D15-FA-1, Nederland (6201): temperatuur & dauwpunt: 12.11.2017 03:00:00 - 18.11.2017 03:00:00 (CET)D15-FA-1, Nederland (6201): windsnelheid & windstoten: 12.11.2017 03:00:00 - 18.11.2017 03:00:00 (CET)D15-FA-1, Nederland (6201): windrichting: 12.11.2017 03:00:00 - 18.11.2017 03:00:00 (CET)D15-FA-1, Nederland (6201): luchtdruk: 12.11.2017 03:00:00 - 18.11.2017 03:00:00 (CET)D15-FA-1, Nederland (6201): zicht: 12.11.2017 03:00:00 - 18.11.2017 03:00:00 (CET)
Datum & Tijd tt [°C] td [°C] ff [km/u] ff [kn] fx [km/u] fx [kn] dd ppp [hPa] vv [km]
18.11.2017 03:00:00 9,2 4,9 63 34 68 37 W 1016,7 10
18.11.2017 02:00:00 9,3 5,1 59 32 65 35 W 1017,8 10
18.11.2017 01:00:00 9,4 4,8 59 32 - - W 1018,6 10
18.11.2017 00:00:00 9,2 4,2 50 27 58 31 - 1019,1 10
17.11.2017 23:00:00 9,3 4,5 39 21 54 29 W 1020,1 10
17.11.2017 22:00:00 9,3 4,5 55 30 - - W 1020,5 10
17.11.2017 21:00:00 9,2 3,8 54 29 58 31 W 1021,0 10
17.11.2017 20:00:00 9,2 4,4 52 28 54 29 W 1021,6 10
17.11.2017 19:00:00 9,0 4,2 48 26 - - W 1022,2 10
17.11.2017 18:00:00 9,0 3,8 39 21 47 25 W 1022,7 10
17.11.2017 17:00:00 9,2 3,6 41 22 47 25 W 1023,2 10
17.11.2017 16:00:00 9,2 3,2 44 24 - - W 1023,6 10
17.11.2017 15:00:00 9,1 3,3 42 23 47 25 W 1023,9 10
17.11.2017 14:00:00 9,4 3,1 41 22 43 23 W 1024,5 10
17.11.2017 13:00:00 9,1 3,3 35 19 - - W 1024,9 10
17.11.2017 12:00:00 9,4 4,1 41 22 43 23 W 1025,7 10
17.11.2017 11:00:00 9,0 3,4 37 20 40 21 W 1025,9 10
17.11.2017 10:00:00 9,1 3,8 31 17 - - W 1025,7 10
17.11.2017 09:00:00 9,0 3,5 31 17 36 19 W 1025,8 10
17.11.2017 08:00:00 8,9 2,1 34 18 36 19 W 1025,6 10
17.11.2017 07:00:00 8,8 3,2 28 15 - - W 1025,3 10
17.11.2017 06:00:00 9,0 3,0 31 17 32 18 WNW 1025,2 10
17.11.2017 05:00:00 9,2 2,6 26 14 29 16 WNW 1025,3 10
17.11.2017 04:00:00 9,3 2,9 28 15 - - WNW 1025,1 10
17.11.2017 03:00:00 9,2 3,0 29 16 36 19 W 1025,2 10
17.11.2017 02:00:00 9,5 2,4 26 14 32 18 WNW 1024,9 10
17.11.2017 01:00:00 9,6 1,7 31 17 - - WNW 1024,7 10
17.11.2017 00:00:00 9,5 1,9 35 19 36 19 NW 1024,4 10
16.11.2017 23:00:00 9,5 2,0 39 21 40 21 NW 1024,1 10
16.11.2017 22:00:00 9,6 2,2 39 21 - - NW 1023,7 10
16.11.2017 21:00:00 9,7 1,5 44 24 47 25 NW 1022,9 10
16.11.2017 20:00:00 9,8 2,5 46 25 47 25 NW 1022,1 10
16.11.2017 19:00:00 9,8 2,3 48 26 - - NW 1021,2 10
16.11.2017 18:00:00 10,0 3,7 54 29 54 29 NW 1020,3 10
16.11.2017 17:00:00 10,4 5,5 57 31 58 31 NW 1019,0 10
16.11.2017 16:00:00 11,1 7,6 46 25 - - WNW 1018,0 10
16.11.2017 15:00:00 10,8 7,6 57 31 76 41 W 1017,2 9
16.11.2017 14:00:00 11,7 9,1 41 22 43 23 WZW 1016,5 10
16.11.2017 13:00:00 11,7 9,2 39 21 - - WZW 1016,6 10
16.11.2017 12:00:00 11,5 9,2 37 20 40 21 WZW 1017,1 10
16.11.2017 11:00:00 11,4 9,3 39 21 40 21 WZW 1017,3 10
16.11.2017 10:00:00 11,5 9,2 37 20 - - WZW 1017,4 10
16.11.2017 09:00:00 11,7 10,1 34 18 47 25 ZW 1017,5 10
16.11.2017 08:00:00 11,6 10,0 42 23 43 23 ZW 1017,2 10
16.11.2017 07:00:00 11,6 9,9 35 19 - - ZW 1017,9 10
16.11.2017 06:00:00 11,3 9,9 29 16 36 19 ZW 1018,2 10
16.11.2017 05:00:00 11,0 9,1 29 16 36 19 ZW 1018,5 10
16.11.2017 04:00:00 11,0 9,4 29 16 - - ZW 1019,2 10
16.11.2017 03:00:00 11,2 9,2 26 14 32 18 ZW 1019,9 10
16.11.2017 02:00:00 11,2 9,1 18 10 25 14 - 1020,5 10
16.11.2017 01:00:00 11,1 8,5 16 9 - - - 1021,0 10
16.11.2017 00:00:00 10,7 8,0 5 3 22 12 ZZW 1021,4 10
15.11.2017 23:00:00 10,2 8,3 11 6 14 8 OZO 1021,7 10
15.11.2017 22:00:00 10,1 8,0 15 8 - - OZO 1022,2 10
15.11.2017 21:00:00 10,5 7,7 15 8 18 10 ZZO 1022,7 10
15.11.2017 20:00:00 10,5 8,1 11 6 14 8 ZZO 1023,1 9
15.11.2017 19:00:00 10,4 7,9 9 5 - - ZO 1023,3 5
15.11.2017 18:00:00 10,4 7,8 5 3 7 4 OZO 1023,4 10
15.11.2017 17:00:00 10,4 6,9 8 4 11 6 ZO 1023,6 10
15.11.2017 16:00:00 10,2 7,4 9 5 - - ZZO 1023,6 7
15.11.2017 15:00:00 10,4 7,1 8 4 11 6 ZO 1023,6 5
15.11.2017 14:00:00 10,3 6,7 9 5 11 6 ZO 1023,8 6
15.11.2017 13:00:00 10,5 6,5 8 4 - - O 1023,8 10
15.11.2017 12:00:00 10,3 6,4 5 3 11 6 - 1024,2 10
15.11.2017 11:00:00 10,7 6,7 5 3 11 6 ONO 1024,0 10
15.11.2017 10:00:00 10,6 7,5 13 7 - - N 1023,4 10
15.11.2017 09:00:00 10,4 8,8 15 8 14 8 NNW 1023,0 10
15.11.2017 08:00:00 10,3 8,5 9 5 14 8 NNW 1022,4 10
15.11.2017 07:00:00 10,2 8,3 13 7 - - NNW 1022,0 10
15.11.2017 06:00:00 10,1 8,6 4 2 14 8 - 1021,6 10
15.11.2017 05:00:00 9,8 8,5 8 4 14 8 - 1021,4 10
15.11.2017 04:00:00 9,8 8,5 13 7 - - NW 1021,2 10
15.11.2017 03:00:00 10,4 8,3 15 8 18 10 WNW 1021,2 9
15.11.2017 02:00:00 10,8 8,3 15 8 18 10 NW 1020,6 10
15.11.2017 01:00:00 10,8 8,8 21 11 - - WNW 1020,6 9
15.11.2017 00:00:00 11,2 10,5 26 14 29 16 W 1020,4 10
14.11.2017 23:00:00 11,3 10,5 31 17 32 18 W 1020,1 10
14.11.2017 22:00:00 11,5 10,5 26 14 - - WZW 1019,9 10
14.11.2017 21:00:00 11,2 10,6 24 13 25 14 W 1020,0 10
14.11.2017 20:00:00 10,5 10,2 11 6 14 8 ZZW 1020,2 2,5
14.11.2017 19:00:00 10,3 9,7 5 3 - - W 1019,9 10
14.11.2017 18:00:00 10,4 9,6 4 2 11 6 - 1019,9 8
14.11.2017 17:00:00 10,6 9,6 9 5 18 10 W 1019,7 10
14.11.2017 16:00:00 10,9 9,7 13 7 - - W 1019,6 10
14.11.2017 15:00:00 11,3 10,0 16 9 22 12 WNW 1019,3 10
14.11.2017 14:00:00 11,4 9,7 24 13 29 16 W 1018,9 10
14.11.2017 13:00:00 11,0 9,8 31 17 - - W 1018,6 10
14.11.2017 12:00:00 11,1 9,7 39 21 43 23 W 1018,4 10
14.11.2017 11:00:00 11,0 9,0 44 24 43 23 W 1017,8 10
14.11.2017 10:00:00 10,9 9,0 44 24 - - W 1017,2 10
14.11.2017 09:00:00 10,6 9,0 46 25 50 27 W 1016,7 8
14.11.2017 08:00:00 10,4 8,1 44 24 50 27 W 1016,0 10
14.11.2017 07:00:00 10,3 8,1 46 25 - - W 1015,9 9
14.11.2017 06:00:00 9,9 7,3 48 26 50 27 W 1015,9 10
14.11.2017 05:00:00 9,5 6,9 44 24 47 25 WZW 1015,7 10
14.11.2017 04:00:00 9,6 5,5 44 24 - - WZW 1016,6 10
14.11.2017 03:00:00 9,2 4,6 44 24 43 23 WZW 1017,6 10
14.11.2017 02:00:00 8,9 3,7 39 21 40 21 WZW 1018,6 10
14.11.2017 01:00:00 8,8 3,0 35 19 - - WZW 1019,4 10
14.11.2017 00:00:00 8,6 0,5 29 16 32 18 WZW 1020,0 10
13.11.2017 23:00:00 8,3 1,0 34 18 43 23 W 1020,5 10
13.11.2017 22:00:00 8,2 1,8 35 19 - - W 1021,2 10
13.11.2017 21:00:00 8,3 2,3 26 14 29 16 W 1021,4 10
13.11.2017 20:00:00 8,4 2,9 29 16 40 21 NW 1021,7 10
13.11.2017 19:00:00 8,5 3,7 28 15 - - WNW 1021,9 10
13.11.2017 18:00:00 8,2 3,1 24 13 36 19 NW 1022,0 10
13.11.2017 17:00:00 8,5 2,2 31 17 40 21 NNW 1022,0 10
13.11.2017 16:00:00 8,7 2,0 28 15 - - NW 1021,8 10
13.11.2017 15:00:00 8,8 0,8 39 21 43 23 NNW 1021,7 10
13.11.2017 14:00:00 8,9 1,5 39 21 43 23 NNW 1021,5 10
13.11.2017 13:00:00 8,9 2,8 41 22 50 27 NNW 1021,5 10
13.11.2017 12:00:00 8,6 3,7 48 26 47 25 N 1021,3 10
13.11.2017 11:00:00 7,7 2,9 57 31 61 33 N 1021,1 10
13.11.2017 10:00:00 9,2 1,3 52 28 54 29 N 1020,7 10
13.11.2017 09:00:00 8,9 1,5 55 30 65 35 N 1019,9 10
13.11.2017 08:00:00 8,9 2,5 59 32 68 37 N 1019,3 10
13.11.2017 07:00:00 8,7 1,9 63 34 68 37 N 1018,5 10
13.11.2017 06:00:00 8,5 2,2 63 34 68 37 N 1017,6 10
13.11.2017 05:00:00 8,6 2,2 68 37 79 43 N 1016,8 10
13.11.2017 04:00:00 9,0 2,7 61 33 68 37 N 1016,1 10
13.11.2017 03:00:00 8,4 2,2 68 37 72 39 N 1015,3 10
13.11.2017 02:00:00 8,8 1,7 65 35 72 39 N 1014,8 10
13.11.2017 01:00:00 9,1 3,3 70 38 68 37 N 1014,4 10
13.11.2017 00:00:00 9,2 2,4 72 39 76 41 N 1013,5 10
12.11.2017 23:00:00 9,2 3,4 72 39 76 41 N 1012,6 10
12.11.2017 22:00:00 9,0 3,8 74 40 - - N 1011,7 10
12.11.2017 21:00:00 9,2 3,7 76 41 79 43 N 1010,5 10
12.11.2017 20:00:00 9,4 3,5 74 40 79 43 N 1009,2 10
12.11.2017 19:00:00 9,4 2,9 76 41 - - N 1008,0 10
12.11.2017 18:00:00 9,4 3,8 61 33 72 39 N 1006,9 10
12.11.2017 17:00:00 9,2 3,0 61 33 90 49 N 1005,7 10
12.11.2017 16:00:00 8,8 3,5 70 38 72 39 N 1004,6 10
12.11.2017 15:00:00 9,3 2,5 61 33 68 37 N 1003,3 10
12.11.2017 14:00:00 8,7 2,9 61 33 68 37 N 1002,4 10
12.11.2017 13:00:00 7,8 2,1 72 39 76 41 N 1001,7 10
12.11.2017 12:00:00 7,6 3,4 63 34 72 39 N 1000,8 5
12.11.2017 11:00:00 6,8 2,7 52 28 65 35 NNW 1000,5 4,7
12.11.2017 10:00:00 6,4 3,2 42 23 61 33 NNW 1000,6 10
12.11.2017 09:00:00 6,8 2,8 50 27 61 33 NNW 1000,6 10
12.11.2017 08:00:00 7,7 1,6 50 27 50 27 NW 1001,0 10
12.11.2017 07:00:00 6,6 2,0 42 23 58 31 WNW 1001,7 10
12.11.2017 06:00:00 7,3 0,6 50 27 50 27 NW 1002,1 10
12.11.2017 05:00:00 6,3 1,1 44 24 58 31 W 1003,1 10
12.11.2017 04:00:00 6,4 2,3 54 29 61 33 W 1003,9 10
12.11.2017 03:00:00 7,0 2,9 37 20 43 23 WNW 1005,0 10

tt = temperatuur
td = dauwpunt
ff = windsnelheid
fx = windstoten
dd = windrichting
ppp = luchtdruk
vv = zicht

Weerstations in de omgeving